Location: Home
(42.5358°N, 72.7383°W)
Time: 16:00:02
(UTC-04:00)

Explorer 11/Cluster Stage 4 - Pass Details

Date: 06 August 2024
Orbit: 464 x 1208 km, 28.8° (Epoch: 19 September)

Event Time Altitude Azimuth Distance (km) Brightness Sun altitude
Rises 04:20:32 0° 254° (WSW) 4,008 - -14.7°
Reaches altitude 10° 04:23:48 10° 243° (WSW) 3,103 - -14.2°
Exits shadow 04:26:13 18° 228° (SW) 2,559 8.5 -13.9°
Maximum altitude 04:30:04 26° 190° (S) 2,157 8.4 -13.3°
Drops below altitude 10° 04:36:19 10° 137° (SE) 3,096 9.7 -12.4°
Sets 04:39:35 0° 126° (SE) 3,997 10.4 -11.9°
